Regional Weather Roundup
Issued by NWS Albany, NY

Home | Current Version | Previous Version | Text Only | Print | Product List | Glossary On
Versions: 1 2 3 4 5 6 7 8 9 10 11 12 13 14 15 16 17 18 19 20 21 22 23 24 25 26 27
000
ASUS41 KALY 160010
RWRALY

NEW YORK STATE HOURLY WEATHER ROUNDUP
NATIONAL WEATHER SERVICE ALBANY NY
800 PM EDT TUE APR 15 2014

NOTE: "FAIR" INDICATES FEW OR NO CLOUDS BELOW 12,000 FEET WITH NO
SIGNIFICANT WEATHER AND/OR NO OBSTRUCTIONS TO VISIBILITY.

NYZ032-033-038>043-046>054-057>066-NYZ062>081-160100-
EAST


CITY           SKY/WX    TMP DP  RH WIND       PRES   REMARKS
ALBANY         LGT SNOW  33  29  85 W18G25    29.85R FOG     WCI  22
GLENS FALLS    LGT RAIN  38  34  85 W8        29.76R WCI  32
POUGHKEEPSIE   LGT RAIN  43  40  89 N10       29.73R
NEWBURGH       LGT RAIN  41  39  93 W17       29.75R FOG
MONTGOMERY     RAIN      39  33  79 NW20G26   29.78R WCI  29
WHITE PLAINS   LGT RAIN  45  42  89 NW15      29.67R FOG
ISLIP          CLOUDY    52  49  89 NW14      29.62R
NEW YORK CITY  LGT RAIN  45  39  81 NW25G31   29.73R
CENTRAL PARK   LGT RAIN  44  39  82 NW9G24    29.76R
$$

NYZ005>009-017-018-044>046-055-056-160100-
CENTRAL


CITY           SKY/WX    TMP DP  RH WIND       PRES   REMARKS
FULTON         CLOUDY    30  21  69 NW20G29   29.89S WCI  17
SYRACUSE       FLURRIES  29  27  92 W10       29.90R WCI  20
ROME           MIX PCPN  29  24  82 W16G23    29.89R WCI  17
ELMIRA         CLOUDY    32  22  66 NW8       29.91R WCI  25
BINGHAMTON     LGT SNOW  28  27  93 NW8G21    29.85R FOG     WCI  20
MONTICELLO     CLOUDY    30  28  93 NW15G26   29.81R WCI  19
$$

NYZ026>034-041>043-160100-
NORTH


CITY           SKY/WX    TMP DP  RH WIND       PRES   REMARKS
WATERTOWN      CLOUDY    31  21  66 W22G29    29.88R WCI  18
FORT DRUM      NOT AVBL
MASSENA        CLOUDY    27  21  78 W17G23    29.86R WCI  14
SARANAC LAKE   LGT SNOW  27  24  89 W7G18     29.70R FOG     WCI  19
PLATTSBURGH    LGT SNOW  33  31  92 NW8       29.77R FOG     WCI  26
$$

NYZ001>004-010>016-019>021-160100-
WEST


CITY           SKY/WX    TMP DP  RH WIND       PRES   REMARKS
NIAGARA FALLS  FLURRIES  28  16  60 NW18G29   30.00S WCI  15
BUFFALO        CLOUDY    28  16  60 W20       30.00R WCI  15
DUNKIRK        CLOUDY    29  18  63 NW17G26   30.05R WCI  17
JAMESTOWN      CLOUDY    23  18  80 CALM      29.98R
WELLSVILLE     LGT SNOW  24  17  74 NW15G29   29.91R WCI  11
ROCHESTER      CLOUDY    30  19  63 NW16G25   29.95F WCI  19
PENN YAN       LGT SNOW  30  24  78 W10       29.95R WCI  21
$$

             KEY
       WCI = WIND CHILL INDEX
       VSB = VISIBILITY
       HX  = HEAT INDEX
$$



USA.gov is the U.S. government's official web portal to all federal, state and local government web resources and services.